Find Weili Kongjian 01-05

NORAD ID: 62580 Int'l Des: 2025-007 Owner: CENTI Country: CN Constellation: future-navigation operational
LEOCIRCULAR

現在のビュー

3D地球を読み込み中...

About Weili Kongjian 01-05

Weili Kongjian 01-05 (NORAD 62580) is a future-navigation constellation satellite launched Jan 13, 2025 by CENTI of CN. It operates in LEO, CIRCULAR orbit with a mass of 140.00 kg.

Weili Kongjian 01-05について

説明を読み込み中...

次回通過

Passes for default location (London). Set your location on the main map for personalized predictions.

高度履歴

Loading altitude history...

軌道要素

1 62580U 25007F 26195.14804031 -.00000112 00000-0 27411-4 0 9993
2 62580 54.9756 196.8139 0011728 142.3769 217.8010 13.80616737 78452
Epoch: Jul 14, 2026 • Age: 12 hours

現在のステータス

高度 986.1 km
遠地点 / 近地点 N/A
速度 7.35 km/s
衛星直下点 -48.59°S, 20.62°W
打ち上げ日 Jan 13, 2025
運用期間 1.4 years
タイプ other

技術仕様

分類 Payload
質量 140.00 kg
乾燥質量 140.00 kg
総質量 140.00 kg
長さ 1.00 m
直径 0.50 m
スパン 2.00 m
形状 Box + 2 pan
製造者 DFHS
バスタイプ WK01
フェーズステータス In Orbit
所有者/国 CENTI/CN

Most Searched